Weather in Malyye Kirilly

Russia / Smolensk Oblast     53°58′30″N   32°53′18″E
temp.,
°C
wind,
m/s
gust,
m/s
humid.,
%
clouds,
%
prec.,
mm/h
press.,
hPa
HPBL,
m
14 april, wed
wed1400:00+11sse249499 0.9 1018123
03:00+10s269388 1.0 1018209
06:00+8sse239745 0.1 101867
09:00+12s368432 0.1 1018549
12:00+14s4565100 0.4 10171115
15:00+15s3458100 0.8 10171254
18:00+14sse1263100 0.1 1016324
21:00+11nne1185100 0.8 101713
15 april, thu
thu1500:00+9nne2390100 0.2 101558
03:00+9ne3893100 0.6 1015204
06:00+9ne3992100 0.1 1014253
09:00+11e41073100 0.1 1014423
12:00+14ene585971 0.0 10131049
15:00+15ene686084 1.0 10121293
18:00+12e51074100 2.8 1012520
21:00+10ne3992100 4.4 1014423
16 april, fri
fri1600:00+9ene379385 0.6 1014155
03:00+9ene41092100 0.8 1014321
06:00+7ene389575 0.2 1015216
09:00+11ene588499 0.2 1016430
12:00+12ese5876100 1.2 1016903
15:00+10e4788100 3.1 1017579
18:00+11e4982100 0.6 1017697
21:00+9ne3894100 1.4 1018232
17 april, sat
sat1700:00+8ene389635 0.1 1019200
03:00+7ene379863 0.6 1020216
06:00+9ene489599 0.1 1020417
09:00+9ene5990100 0.1 1022558
12:00+10ene5982100 0.0 1022797
15:00+11ene51078100 0.0 10221005
18:00+13ene7116992 0.0 10221071
21:00+10ene614735 0.0 1022613
18 april, sun
sun1800:00+8ene5147636 0.0 1023501
03:00+6ene513735 0.0 1024407
06:00+4ene512784 0.0 1025359
09:00+8ene596714 0.0 1025514
12:00+11e586235 0.0 1025933
15:00+13e575589 0.0 10251670
18:00+12e475856 0.1 10261024
21:00+9e2669100 0.1 1027215